This demonstration page uses our WeatherBlox Daily Observations layout. Learn more.

Left ArrowRight Arrow

Hourly Observations for August 13, 2022

Temp ( °F °C ) Dew Point ( °F °C ) Humidity (%) Winds ( mph kmh ) Pressure ( in mb ) Visibility ( mi km ) Precip ( " mm )
12:51 am 00:51 Clear 71 21.7 67 19.4 87 87 NNW 3 6 29.94 1014 10 16 0.00 0.00
1:51 am 01:51 Mostly Clear 71 21.7 67 19.4 87 87 ENE 3 6 29.94 1014 10 16 0.00 0.00
2:51 am 02:51 Clear 72 22.2 66 18.9 82 82 Calm 29.94 1014 10 16 0.00 0.00
3:51 am 03:51 Mostly Clear 71 21.7 65 18.3 81 81 ESE 7 11 29.95 1014 10 16 0.00 0.00
4:51 am 04:51 Mostly Clear 71 21.7 65 18.3 81 81 ESE 7 11 29.95 1014 10 16 0.00 0.00
5:51 am 05:51 Sunny 71 21.7 65 18.3 81 81 SSE 5 7 29.96 1015 10 16 0.00 0.00
6:51 am 06:51 Sunny 71 21.7 67 19.4 87 87 NW 3 6 29.99 1016 10 16 0.00 0.00
7:51 am 07:51 Sunny 75 23.9 67 19.4 76 76 Calm 30.00 1016 10 16 0.00 0.00
8:51 am 08:51 Partly Cloudy 78 25.6 66 18.9 67 67 Calm 30.00 1016 10 16 0.00 0.00
9:51 am 09:51 Sunny 81 27.2 65 18.3 58 58 Calm 30.00 1016 10 16 0.00 0.00
10:51 am 10:51 Sunny 84 28.9 66 18.9 55 55 Calm 29.98 1015 10 16 0.00 0.00
11:51 am 11:51 Sunny 86 30 65 18.3 50 50 W 3 6 29.95 1014 10 16 0.00 0.00
12:51 pm 12:51 Sunny 89 31.7 64 17.8 44 44 WSW 6 9 29.92 1013 10 16 0.00 0.00
1:51 pm 13:51 Sunny 91 32.8 63 17.2 39 39 VRB 3 6 29.87 1011 10 16 0.00 0.00
2:51 pm 14:51 Sunny 94 34.4 62 16.7 35 35 N 6 9 29.83 1010 10 16 0.00 0.00
3:42 pm 15:42 Partly Cloudy with Nearby Thunderstorms 93 33.9 62 16.7 36 36 SW 7 11 29.71 1006 10 16 0.00 0.00
3:51 pm 15:51 Partly Cloudy with Nearby Thunderstorms 94 34.4 62 16.7 35 35 Calm 29.82 1010 10 16 0.00 0.00
4:19 pm 16:19 Mostly Cloudy with Thunderstorms 86 30 63 17.2 46 46 E 26 43 29.78 1008 10 16 0.00 0.00
4:51 pm 16:51 Cloudy with Thunderstorms 75 23.9 65 18.3 71 71 NW 20 31 29.93 1014 10 16 0.00 0.00
4:58 pm 16:58 Cloudy with Thunderstorms 74 23.3 64 17.8 71 71 NW 10 17 29.89 1012 10 16 0.00 0.00
5:18 pm 17:18 Cloudy with Nearby Thunderstorms 77 25 66 18.9 69 69 NNW 10 17 29.87 1012 10 16 0.00 0.00
5:51 pm 17:51 Cloudy 75 23.9 67 19.4 76 76 SSW 13 20 29.94 1014 10 16 0.01 0.13
6:51 pm 18:51 Sunny 74 23.3 69 20.6 85 85 N 6 9 29.96 1015 10 16 0.01 0.13
7:51 pm 19:51 Mostly Cloudy 74 23.3 69 20.6 85 85 Calm 29.98 1015 10 16 0.01 0.25
8:51 pm 20:51 Mostly Clear 71 21.7 71 21.7 100 100 WNW 8 13 29.98 1015 10 16 0.01 0.25
9:51 pm 21:51 Clear 72 22.2 68 20 87 87 N 9 15 29.96 1015 10 16 0.00 0.00
10:51 pm 22:51 Clear 73 22.8 69 20.6 87 87 NW 6 9 29.97 1015 10 16 0.00 0.00
11:51 pm 23:51 Mostly Clear 71 21.7 70 21.1 96 96 WNW 10 17 29.97 1015 10 16 0.00 0.00

Powered by AerisWeather